Location: Hoyos del Collado
(40.3594°N, 5.2003°W)
Time: 11:52:22
(UTC+00:00)

Terra - Pass Details

Date: 18 April 2024
Orbit: 691 x 696 km, 98.0° (Epoch: 27 May)

Event Time Altitude Azimuth Distance (km) Brightness Sun altitude
Exits shadow 20:40:54 21° 76° (ENE) 1,533 3.2 -17.8°
Maximum altitude 20:41:25 22° 66° (ENE) 1,516 3.2 -17.8°
Drops below altitude 10° 20:45:00 10° 17° (NNE) 2,163 4.5 -18.4°
Sets 20:47:41 0° 2° (N) 3,084 5.6 -18.8°
